EHI
0 0 0 0 0 0 0 0 0 0 0 1 2 3 3 4 3 3 5 6 4 4 5 6 8 11 12 12 14 16 18 21 21 16 12 11 10 8 6 6 5 2 0 0
0 0 0 0 0 0 0 0 0 0 0 1 2 3 3 4 3 3 5 6 4 4 6 8 9 11 13 13 15 18 19 20 21 18 14 12 11 9 7 6 4 2 1 1
0 0 0 0 0 0 0 0 0 0 0 1 2 3 5 6 5 4 5 4 4 5 7 8 9 10 12 14 16 18 20 22 24 23 19 15 13 10 8 7 6 4 4 4
0 0 0 0 0 0 0 0 0 0 0 0 1 2 6 7 7 7 5 3 3 5 7 8 9 10 12 13 15 17 20 24 26 27 24 20 17 13 11 10 9 8 7 7
0 0 0 0 0 0 0 0 0 0 0 0 0 1 4 6 7 7 6 5 3 4 7 11 12 12 12 14 15 17 21 24 26 27 27 24 19 17 16 14 11 9 8 9
0 0 0 0 0 0 0 0 0 0 0 0 0 1 2 4 4 4 5 5 4 4 8 13 15 14 15 15 16 18 21 23 25 27 27 25 23 22 21 17 12 7 7 8
0 0 0 0 0 0 0 0 0 0 0 0 0 0 2 3 3 3 3 4 4 6 10 13 15 16 19 20 18 19 23 24 26 28 28 27 26 24 22 18 12 7 5 6
0 0 0 0 0 0 0 0 0 0 0 0 0 1 2 3 4 4 2 2 3 6 10 12 14 17 21 22 20 20 22 24 26 27 27 28 27 23 22 20 14 8 6 6
0 0 0 0 0 0 0 0 0 0 0 0 0 2 3 4 6 7 6 3 3 5 8 10 13 16 19 21 20 20 20 22 23 24 25 26 25 23 23 23 17 10 7 7
0 0 0 0 0 0 0 0 0 0 0 0 0 1 3 5 7 10 11 7 5 4 5 8 12 14 16 18 19 19 19 19 20 22 24 23 22 21 22 23 19 13 10 9
0 0 0 0 0 0 0 0 0 0 0 0 0 1 3 4 7 11 13 10 7 5 6 10 12 14 15 17 18 19 18 19 20 22 23 23 21 20 19 20 19 15 11 10
0 0 0 0 0 0 0 0 0 0 0 0 0 1 2 3 6 11 13 11 8 6 6 10 11 12 14 17 19 19 19 19 20 23 25 25 23 22 21 20 20 16 12 11
0 0 0 0 0 0 0 0 0 0 0 0 0 2 3 4 6 10 13 12 8 6 6 8 10 12 14 16 17 18 19 17 19 24 27 27 26 25 24 23 21 17 13 11
0 0 0 0 0 0 0 0 0 0 0 0 1 3 5 4 6 11 14 12 8 7 7 8 11 14 15 15 15 17 18 19 22 26 29 30 28 28 26 24 22 19 15 12
0 0 0 0 0 0 0 0 0 0 0 0 1 3 4 5 8 12 14 12 10 10 12 12 14 16 15 15 17 18 19 23 28 32 33 34 32 29 27 26 26 24 18 14
0 0 0 0 0 0 0 0 0 0 0 0 1 3 5 6 9 11 14 14 13 14 17 18 18 18 16 17 20 21 21 25 30 34 35 36 33 29 27 29 30 28 23 19
0 0 0 0 0 0 0 0 0 0 0 0 2 5 7 8 8 10 13 15 16 17 20 21 21 19 17 18 21 23 23 25 29 31 33 33 31 29 28 29 31 30 28 26
0 0 0 0 0 0 0 0 0 0 0 2 5 8 9 9 8 9 11 14 16 19 20 20 20 18 17 17 19 22 23 25 25 26 27 28 28 29 29 29 29 30 29 29
0 0 0 0 0 0 0 0 1 1 1 4 7 10 12 11 9 9 10 13 17 20 20 17 15 16 17 16 17 19 20 23 24 23 22 23 25 27 28 28 28 28 27 27
0 0 0 0 0 0 1 1 1 2 2 4 8 12 15 14 10 11 14 17 19 19 17 14 12 14 17 17 17 17 19 21 23 22 20 20 22 25 27 28 28 27 26 26
0 0 0 0 0 0 1 1 1 2 3 5 8 13 15 14 13 16 19 21 20 17 15 12 11 12 14 17 17 17 19 21 22 22 19 19 21 24 28 29 29 27 26 26
0 0 0 0 1 1 1 2 3 4 5 6 8 10 11 12 14 18 20 21 20 17 13 12 11 10 12 15 17 17 18 20 21 21 19 19 21 24 28 30 28 27 27 26
1 1 1 1 2 2 2 3 4 4 4 5 6 7 9 11 13 15 16 17 16 14 12 11 11 12 12 13 14 16 18 21 22 21 21 21 22 24 28 28 26 25 26 25
1 1 2 3 3 3 3 3 3 2 2 2 4 6 9 11 13 14 12 11 11 9 9 9 11 13 13 11 11 13 17 20 22 22 23 23 22 23 26 26 23 23 24 24
1 1 2 2 2 3 3 2 2 1 1 1 2 4 7 9 11 11 10 8 8 7 7 8 9 12 12 10 10 12 14 17 19 20 20 20 19 19 20 21 19 18 19 19
0 1 1 1 1 2 2 2 1 1 0 1 2 3 5 7 9 8 8 8 8 7 6 7 9 11 11 11 11 12 12 13 15 16 16 16 16 15 15 17 15 13 12 11
Wind_Speed
8 9 8 6 7 6 5 5 3 1 2 5 5 3 3 5 6 6 6 7 7 7 7 7 7 7 7 6 7 7 6 6 5 4 4 3 3 2 2 2 2 1 0 0
9 10 7 6 6 7 7 7 4 3 2 4 4 4 3 5 7 6 7 7 8 8 7 8 8 8 8 8 8 8 8 7 6 4 3 2 2 2 2 2 2 1 1 1
12 5 4 7 7 8 8 7 5 3 3 6 6 6 5 5 6 7 7 7 7 8 8 8 8 8 8 8 8 7 7 7 7 6 4 3 3 3 3 3 3 2 1 1
10 6 7 9 8 9 7 4 6 6 7 4 6 5 5 5 6 7 8 8 8 8 8 8 8 8 8 8 8 8 7 7 7 7 6 5 4 3 3 2 2 2 2 1
8 7 9 10 7 7 5 3 6 7 8 7 7 8 3 6 6 6 7 7 7 7 8 8 8 7 7 8 8 8 7 7 7 7 7 6 5 4 3 3 3 2 2 1
7 6 7 6 5 6 5 6 7 8 9 9 6 8 4 3 3 4 6 6 6 6 7 7 7 6 6 7 7 7 7 7 7 7 7 7 6 4 3 3 3 3 2 2
10 9 7 6 8 9 10 9 7 8 8 6 4 7 3 2 1 3 3 5 6 6 6 7 7 7 7 7 8 8 8 7 7 7 6 6 6 6 5 4 3 3 2 2
11 10 9 9 9 7 10 11 8 7 6 4 6 7 1 2 1 2 3 3 5 5 6 6 7 7 6 7 7 8 7 7 7 7 6 5 6 5 4 4 3 3 2 1
8 7 7 7 7 9 9 10 9 10 9 8 5 4 4 4 4 4 5 4 4 5 5 5 6 7 7 7 7 7 7 7 7 7 7 6 5 4 3 3 4 3 2 2
7 7 7 7 8 8 9 7 7 9 8 9 6 7 3 5 5 5 5 5 4 5 5 5 5 6 6 6 7 7 7 7 6 6 6 5 6 5 4 4 3 2 2 2
10 10 8 10 10 9 9 9 9 9 9 10 8 3 2 3 4 4 4 4 4 5 5 5 5 5 5 5 6 6 6 6 6 6 5 5 5 5 5 5 4 4 3 3
9 9 9 9 5 5 9 9 10 10 9 9 10 3 3 2 2 3 3 3 3 4 4 4 5 5 5 5 5 5 5 6 6 5 5 5 5 5 5 5 5 4 4 4
6 8 9 10 11 10 10 9 11 12 10 10 11 4 5 3 2 2 2 3 3 3 4 4 4 4 4 4 4 4 4 5 5 5 6 5 5 5 5 5 4 4 4 4
6 9 10 9 5 6 9 9 10 12 11 10 10 6 3 3 3 2 2 2 3 3 3 3 4 4 4 4 3 3 4 4 4 5 5 4 4 4 4 4 4 4 4 4
7 9 9 9 7 8 9 9 10 12 12 12 8 7 4 3 2 2 3 3 3 3 2 3 3 4 4 4 3 3 3 3 3 4 4 4 4 4 4 4 4 4 4 4
5 8 8 10 9 9 10 10 11 11 11 10 10 7 2 1 1 2 3 3 3 3 2 2 3 3 3 3 3 3 3 4 4 4 4 3 4 4 4 4 4 4 4 4
5 7 8 10 7 10 12 9 10 8 8 9 9 4 1 2 2 2 2 3 2 2 2 2 2 2 2 2 3 3 3 4 4 3 3 3 3 4 3 4 4 4 4 4
6 7 7 8 8 13 3 2 3 5 4 3 3 1 1 1 2 2 2 2 2 2 2 2 1 2 2 3 3 3 4 4 4 3 3 3 4 4 3 3 3 3 3 3
6 6 7 8 11 9 4 1 2 5 3 2 2 0 1 2 4 4 3 2 2 2 2 2 1 1 2 2 3 3 3 4 3 3 3 3 3 3 3 3 3 3 3 3
4 6 8 8 11 10 1 3 1 5 5 2 2 1 2 4 5 3 3 2 3 2 2 2 2 2 2 2 3 3 3 3 3 2 2 2 2 2 3 3 3 3 3 3
7 7 9 10 11 4 5 2 3 7 1 4 1 1 2 2 3 4 3 3 2 2 2 2 2 2 2 1 2 2 2 2 2 2 2 2 2 3 3 3 3 3 3 3
6 7 7 8 10 3 5 1 2 4 5 3 3 1 0 2 4 4 3 3 2 2 2 2 2 1 2 1 1 1 1 1 1 2 2 2 2 2 2 3 3 3 4 4
4 4 4 4 2 5 4 3 4 4 3 3 3 2 0 2 3 3 2 2 2 2 2 1 1 1 2 1 0 0 0 0 1 2 2 2 2 2 2 3 4 4 5 4
2 1 3 2 2 2 2 2 4 4 4 4 3 2 1 2 2 2 2 2 1 2 1 1 1 1 1 1 1 1 1 1 1 2 2 2 2 3 2 3 3 4 4 4
1 3 3 3 1 1 1 2 3 3 4 3 2 1 1 1 1 1 1 1 1 1 1 1 1 1 1 1 1 1 1 1 2 2 2 3 3 2 2 3 3 4 3 3
3 3 4 2 0 2 2 2 3 2 3 3 2 1 1 1 1 1 1 1 1 1 1 2 2 2 2 2 1 1 2 2 3 3 3 3 3 2 3 3 3 2 3 3
Wind_Direction
200 222 226 231 246 275 278 273 264 233 193 238 241 242 196 186 205 199 194 191 195 199 190 189 194 195 189 187 193 195 197 186 190 191 195 186 178 184 172 162 132 154 268 145
208 225 235 245 243 248 249 250 235 214 214 251 250 246 211 196 209 212 204 200 198 198 192 195 199 197 195 192 196 196 198 191 194 188 195 195 195 190 177 167 144 169 186 232
227 221 219 232 226 234 243 255 252 237 218 225 241 226 201 190 202 211 213 214 207 204 201 197 201 202 198 196 196 199 198 191 193 188 187 183 184 195 177 180 167 166 183 195
230 223 223 230 229 244 243 253 255 235 238 229 242 257 191 196 201 204 207 210 212 208 207 203 201 203 202 197 192 194 195 193 192 193 195 194 195 201 193 188 160 164 175 190
213 214 226 232 232 243 266 252 242 241 249 252 230 263 190 194 208 204 205 208 210 207 206 203 203 201 200 194 189 183 183 188 192 197 196 205 213 211 195 182 159 188 168 195
233 219 236 238 231 227 207 208 213 231 243 245 237 258 236 193 214 214 206 202 204 202 199 197 197 194 196 193 190 184 179 186 190 197 201 206 211 209 198 187 175 189 179 184
214 214 210 221 213 202 220 231 226 222 226 239 198 248 260 112 206 238 216 198 196 193 195 190 190 192 194 195 193 189 184 186 188 194 198 200 204 202 200 202 189 207 196 181
213 209 200 209 228 222 224 246 257 264 263 240 196 239 172 130 192 215 210 193 186 186 189 188 188 190 192 193 193 189 184 186 188 191 194 197 199 204 198 202 208 200 208 188
225 216 186 206 226 236 223 237 264 271 270 264 233 225 188 179 191 199 197 191 187 185 185 185 182 183 184 188 189 188 183 187 191 191 189 194 197 202 193 184 202 202 193 181
243 234 200 192 206 219 253 253 243 255 264 264 245 230 219 189 204 205 202 196 184 180 184 187 181 177 180 184 184 186 186 188 188 190 192 183 182 187 188 192 187 190 189 188
241 235 206 199 218 215 206 224 243 258 264 270 267 245 101 195 208 210 204 194 189 190 189 184 179 171 172 175 174 178 183 187 188 186 185 185 184 184 186 190 189 190 196 191
227 242 230 217 207 256 237 237 234 244 249 256 271 261 111 173 194 199 194 174 174 186 189 180 171 164 165 166 167 167 179 184 183 178 178 184 188 190 191 190 187 189 195 200
208 237 227 211 197 199 223 230 239 251 250 251 258 238 133 150 178 175 168 163 177 183 182 180 170 162 161 162 163 165 177 182 176 175 180 184 193 192 193 189 187 191 197 203
249 243 247 253 251 218 221 227 234 244 249 249 252 259 206 206 205 186 171 175 177 172 180 180 168 159 155 153 155 170 178 177 171 173 179 179 185 179 184 185 188 193 197 199
238 241 243 259 267 258 248 243 234 242 259 268 263 262 267 258 251 185 169 174 175 169 177 174 171 159 158 157 159 167 173 167 156 162 175 172 173 169 176 181 186 186 196 200
238 252 245 245 243 246 250 247 241 242 250 256 259 260 275 7 107 163 171 174 176 171 173 175 172 162 160 160 161 156 164 160 159 167 168 160 161 167 176 182 186 186 191 202
231 236 244 248 239 245 240 239 241 235 241 251 257 264 175 177 168 165 154 150 153 163 155 150 151 144 139 147 155 160 163 156 159 162 163 164 170 179 189 194 187 193 195 202
241 242 242 249 236 245 263 14 271 247 251 278 279 278 188 167 132 114 102 116 127 137 136 136 143 145 148 146 142 148 148 151 158 161 160 166 177 179 182 188 197 204 207 210
248 238 246 244 240 240 202 116 271 247 230 3 317 147 134 149 165 138 87 64 88 91 101 117 135 136 132 139 139 146 158 154 158 161 163 165 170 174 181 193 202 204 203 209
195 229 247 241 251 251 164 71 308 244 219 59 318 236 197 203 222 138 94 76 74 72 83 95 107 110 110 124 150 152 162 162 161 167 171 172 180 189 201 207 205 197 207 212
203 215 237 244 249 256 44 38 230 235 6 38 6 314 214 212 356 80 112 108 106 97 90 95 99 90 81 107 135 143 151 167 170 172 167 177 197 205 208 208 202 204 212 211
251 243 239 250 250 242 52 88 306 17 24 14 16 18 132 93 89 104 110 108 103 92 87 89 92 80 71 80 124 147 163 175 176 174 179 183 208 232 207 205 206 210 215 211
255 300 298 299 360 60 54 48 32 12 360 360 358 0 127 125 116 113 110 100 91 78 64 61 72 78 67 59 59 194 358 181 181 185 202 210 218 228 219 214 214 216 217 229
183 301 257 234 130 88 89 54 29 16 1 356 353 342 155 123 118 119 99 83 72 71 72 61 59 57 47 16 340 315 298 258 215 216 229 234 235 237 225 234 232 232 232 236
291 226 233 227 196 200 135 31 5 5 2 354 351 333 147 128 117 97 77 64 41 27 14 342 318 336 346 323 300 282 273 260 241 242 253 254 248 248 244 245 264 259 255 264
237 247 252 265 18 282 308 340 343 347 340 336 338 349 87 106 97 84 65 50 23 349 330 304 299 306 307 292 278 284 276 260 251 248 254 259 259 251 249 246 248 265 258 240